This is the latest recevied weather packets stored in our database for station/object K4AVM-13. If no packets are shown the sender has not sent any weather packets the latest 10 day(s).
| Time | Temp. | Humidity | Pressure | Rain* | Wind** | Luminosity | Snow |
|---|---|---|---|---|---|---|---|
| 1777830562 | 16.67° C | 32% | 1018.3 hPa | 0 mm | - | 702 W/m² | - |
| 1777830260 | 16.67° C | 33% | 1018.6 hPa | 0 mm | - | 702 W/m² | - |
| 1777829955 | 16.11° C | 32% | 1018.8 hPa | 0 mm | - | 706 W/m² | - |
| 1777829651 | 15.56° C | 39% | 1018.9 hPa | 0 mm | - | 708 W/m² | - |
| 1777829348 | 15° C | 36% | 1018.9 hPa | 0 mm | - | 714 W/m² | - |
| 1777829046 | 15.56° C | 33% | 1018.8 hPa | 0 mm | - | 715 W/m² | - |
| 1777828741 | 16.11° C | 34% | 1018.9 hPa | 0 mm | - | 714 W/m² | - |
| 1777828439 | 15.56° C | 33% | 1019 hPa | 0 mm | - | 716 W/m² | - |
| 1777828136 | 15.56° C | 33% | 1019.2 hPa | 0 mm | - | 718 W/m² | - |
| 1777827832 | 15° C | 35% | 1019.3 hPa | 0 mm | - | 715 W/m² | - |
| 1777827529 | 15° C | 35% | 1019.3 hPa | 0 mm | - | 715 W/m² | - |
| 1777827227 | 15° C | 34% | 1019.2 hPa | 0 mm | - | 713 W/m² | - |
| 1777826923 | 15° C | 34% | 1019.4 hPa | 0 mm | - | 714 W/m² | - |
| 1777826620 | 15° C | 35% | 1019.3 hPa | 0 mm | - | 711 W/m² | - |
| 1777826316 | 14.44° C | 36% | 1019.5 hPa | 0 mm | - | 710 W/m² | - |
| 1777826014 | 15° C | 34% | 1019.4 hPa | 0 mm | - | 705 W/m² | - |
| 1777825711 | 15° C | 39% | 1019.5 hPa | 0 mm | - | 703 W/m² | - |
| 1777825409 | 14.44° C | 35% | 1019.7 hPa | 0 mm | - | 702 W/m² | - |
| 1777825106 | 13.33° C | 36% | 1019.6 hPa | 0 mm | - | 697 W/m² | - |
| 1777824801 | 14.44° C | 35% | 1019.5 hPa | 0 mm | - | 693 W/m² | - |
| 1777824499 | 14.44° C | 37% | 1019.6 hPa | 0 mm | - | 689 W/m² | - |
| 1777824194 | 14.44° C | 38% | 1019.6 hPa | 0 mm | - | 681 W/m² | - |
| 1777823890 | 13.89° C | 37% | 1019.8 hPa | 0 mm | - | 679 W/m² | - |
| 1777823588 | 13.89° C | 37% | 1020 hPa | 0 mm | - | 674 W/m² | - |
| 1777823285 | 13.89° C | 36% | 1020 hPa | 0 mm | - | 668 W/m² | - |
* Rain latest hour (hover to see other rain measurements)
** Current wind speed in m/s (hover to see current wind gust speed)